SMOG-P

Last updated on Sept. 29, 2020, 5:51 a.m. UTC

1 44832U 19084J   20272.06303716  .11453400  23230-5  63587-3 0  9997
2 44832  96.9437 144.0914 0010614 231.8961 128.1384 16.41416157 46773

Satellite is not in orbit.